Tracking 29933 objects as of 2-Dec-2024
HD Live streaming from Space Station
objects crossing your sky now

STARLINK-31477

Track STARLINK-31477 now!
10-day predictions
STARLINK-31477 is classified as:


NORAD ID: 59314
Int'l Code: 2024-056U
Perigee: 450.5 km
Apogee: 452.0 km
Inclination: 43.0 °
Period: 93.5 minutes
Semi major axis: 6822 km
RCS: Unknown
Launch date: March 24, 2024
Source: United States (US)
Launch site: AIR FORCE EASTERN TEST RANGE (AFETR)
Your satellite tracking list
Your tracking list is empty




NASA's NSSDC Master Catalog

Two Line Element Set (TLE):
1 59314U 24056U   24337.28139649 -.00001181  00000-0 -21034-4 0  9997
2 59314  42.9982 338.7092 0001154 247.5263 112.5471 15.40672482 40251
Source of the keplerian elements: AFSPC